This is the latest recevied weather packets stored in our database for station/object N5PA. If no packets are shown the sender has not sent any weather packets the latest 10 day(s).
| Time | Temp. | Humidity | Pressure | Rain* | Wind** | Luminosity | Snow |
|---|---|---|---|---|---|---|---|
| 1777413308 | 27.78° C | 63% | 1014 hPa | 0 mm | - | 984 W/m² | - |
| 1777413005 | 27.78° C | 63% | 1014 hPa | 0 mm | - | 984 W/m² | - |
| 1777412706 | 28.33° C | 62% | 1014 hPa | 0 mm | - | 984 W/m² | - |
| 1777412406 | 28.33° C | 63% | 1014 hPa | 0 mm | - | 984 W/m² | - |
| 1777412105 | 28.33° C | 62% | 1014 hPa | 0 mm | - | 984 W/m² | - |
| 1777411805 | 28.33° C | 62% | 1014.1 hPa | 0 mm | - | 983 W/m² | - |
| 1777411505 | 28.89° C | 63% | 1014.3 hPa | 0 mm | - | 984 W/m² | - |
| 1777411206 | 28.89° C | 62% | 1014.3 hPa | 0 mm | - | 984 W/m² | - |
| 1777410905 | 28.89° C | 62% | 1014.2 hPa | 0 mm | - | 983 W/m² | - |
| 1777410606 | 28.89° C | 62% | 1014.1 hPa | 0 mm | - | 979 W/m² | - |
| 1777410305 | 29.44° C | 60% | 1014.1 hPa | 0 mm | - | 981 W/m² | - |
| 1777410006 | 29.44° C | 59% | 1014.2 hPa | 0 mm | - | 979 W/m² | - |
| 1777409705 | 29.44° C | 60% | 1014.3 hPa | 0 mm | - | 979 W/m² | - |
| 1777409406 | 30° C | 59% | 1014.2 hPa | 0 mm | - | 977 W/m² | - |
| 1777409106 | 30° C | 59% | 1014.4 hPa | 0 mm | - | 976 W/m² | - |
| 1777408805 | 30° C | 58% | 1014.5 hPa | 0 mm | - | 977 W/m² | - |
| 1777408507 | 30° C | 57% | 1014.5 hPa | 0 mm | - | 977 W/m² | - |
| 1777408207 | 30° C | 57% | 1014.4 hPa | 0 mm | - | 977 W/m² | - |
| 1777407907 | 30° C | 57% | 1014.6 hPa | 0 mm | - | 976 W/m² | - |
| 1777407606 | 30.56° C | 58% | 1014.8 hPa | 0 mm | - | 976 W/m² | - |
| 1777407308 | 30.56° C | 56% | 1015.1 hPa | 0 mm | - | 976 W/m² | - |
| 1777407006 | 30.56° C | 56% | 1015.2 hPa | 0 mm | - | 974 W/m² | - |
| 1777406707 | 30.56° C | 55% | 1015.3 hPa | 0 mm | - | 974 W/m² | - |
| 1777406406 | 30.56° C | 54% | 1015.5 hPa | 0 mm | - | 976 W/m² | - |
| 1777406107 | 30.56° C | 56% | 1015.6 hPa | 0 mm | - | 976 W/m² | - |
* Rain latest hour (hover to see other rain measurements)
** Current wind speed in m/s (hover to see current wind gust speed)